BAW252 TKPK-TLPL

Flight info

Callsign BAW252
Flight time 1h 3m
Altitude 40000
Route UDGEL1 GABAR DCT PORQE/N0477F410 DCT ILURI/N0405F230 A555 FOF DCT SLU
Aircraft B772/H-SDE2E3FGHIJ5LORVWXY/LB1D1

Departure

Time 2026-04-23 21:54
Airport Robert L. Bradshaw International Airport (TKPK)

Arrival

Time 2026-04-23 22:57
Airport Hewanorra International Airport (TLPL)
Time Latitude Longitude Altitude Speed Heading
2026-04-23 21:13 17.31127 -62.71538 164 ft 0 kts 196°
2026-04-23 21:45 17.31134 -62.71535 164 ft 4 kts 193°
2026-04-23 21:45 17.31160 -62.71532 164 ft 4 kts 179°
2026-04-23 21:45 17.31187 -62.71532 165 ft 4 kts 193°
2026-04-23 21:46 17.31200 -62.71526 165 ft 0 kts 237°
2026-04-23 21:49 17.31183 -62.71554 164 ft 8 kts 237°
2026-04-23 21:49 17.31149 -62.71601 164 ft 10 kts 220°
2026-04-23 21:49 17.31077 -62.71639 164 ft 14 kts 223°
2026-04-23 21:49 17.31012 -62.71736 164 ft 18 kts 237°
2026-04-23 21:50 17.30941 -62.71848 164 ft 18 kts 237°
2026-04-23 21:50 17.30871 -62.71958 165 ft 18 kts 236°
2026-04-23 21:50 17.30800 -62.72070 166 ft 18 kts 237°
2026-04-23 21:50 17.30733 -62.72183 168 ft 18 kts 243°
2026-04-23 21:51 17.30715 -62.72315 176 ft 18 kts 268°
2026-04-23 21:51 17.30709 -62.72449 181 ft 18 kts 267°
2026-04-23 21:51 17.30672 -62.72575 181 ft 18 kts 238°
2026-04-23 21:51 17.30586 -62.72668 181 ft 18 kts 205°
2026-04-23 21:52 17.30533 -62.72743 181 ft 7 kts 303°
2026-04-23 21:52 17.30574 -62.72732 181 ft 6 kts 46°
2026-04-23 21:52 17.30585 -62.72716 181 ft 0 kts 56°
2026-04-23 21:53 17.30591 -62.72706 181 ft 12 kts 56°
2026-04-23 21:53 17.30787 -62.72398 180 ft 91 kts 57°
2026-04-23 21:53 17.31268 -62.71640 261 ft 149 kts 56°
2026-04-23 21:54 17.31884 -62.70702 910 ft 164 kts 56°
2026-04-23 21:54 17.32556 -62.69691 1652 ft 177 kts 56°
2026-04-23 21:54 17.33216 -62.68624 2176 ft 175 kts 57°
2026-04-23 21:54 17.33877 -62.67554 2764 ft 178 kts 56°
2026-04-23 21:55 17.34581 -62.66425 3419 ft 189 kts 57°
2026-04-23 21:55 17.35305 -62.65270 3986 ft 189 kts 57°
2026-04-23 21:55 17.36045 -62.64091 4599 ft 201 kts 57°
2026-04-23 21:55 17.36847 -62.62816 5191 ft 218 kts 57°
2026-04-23 21:56 17.37700 -62.61461 5745 ft 226 kts 57°
2026-04-23 21:56 17.38588 -62.60052 6350 ft 242 kts 57°
2026-04-23 21:56 17.39524 -62.58569 6879 ft 246 kts 57°
2026-04-23 21:56 17.40476 -62.57061 7405 ft 250 kts 57°
2026-04-23 21:57 17.41458 -62.55505 7963 ft 262 kts 57°
2026-04-23 21:57 17.42477 -62.53890 8526 ft 273 kts 57°
2026-04-23 21:57 17.43760 -62.52365 9083 ft 287 kts 34°
2026-04-23 21:57 17.45644 -62.51653 9655 ft 295 kts
2026-04-23 21:58 17.47674 -62.51954 10196 ft 299 kts 338°
2026-04-23 21:58 17.49404 -62.53148 10718 ft 304 kts 312°
2026-04-23 21:58 17.50600 -62.55065 11245 ft 327 kts 294°
2026-04-23 21:58 17.51201 -62.57425 11658 ft 345 kts 274°
2026-04-23 21:59 17.51320 -62.59958 12529 ft 347 kts 270°
2026-04-23 21:59 17.50974 -62.62428 13250 ft 354 kts 248°
2026-04-23 21:59 17.49570 -62.64557 14130 ft 358 kts 224°
2026-04-23 22:00 17.46716 -62.68746 15384 ft 365 kts 253°
2026-04-23 22:00 17.46024 -62.71312 16402 ft 367 kts 254°
2026-04-23 22:00 17.45264 -62.73865 17413 ft 369 kts 251°
2026-04-23 22:00 17.44396 -62.76416 18330 ft 374 kts 250°
2026-04-23 22:01 17.43454 -62.78976 19119 ft 379 kts 249°
2026-04-23 22:01 17.42471 -62.81545 19980 ft 381 kts 249°
2026-04-23 22:01 17.41479 -62.84102 20874 ft 383 kts 249°
2026-04-23 22:01 17.40468 -62.86697 21762 ft 386 kts 249°
2026-04-23 22:02 17.39449 -62.89316 22628 ft 390 kts 249°
2026-04-23 22:02 17.38421 -62.91962 23461 ft 394 kts 249°
2026-04-23 22:02 17.37359 -62.94611 24110 ft 394 kts 245°
2026-04-23 22:02 17.35734 -62.96963 24625 ft 408 kts 226°
2026-04-23 22:03 17.33404 -62.98721 25279 ft 418 kts 211°
2026-04-23 22:03 17.30709 -62.99858 26010 ft 426 kts 199°
2026-04-23 22:03 17.27736 -63.00214 26656 ft 434 kts 185°
2026-04-23 22:03 17.24676 -63.00202 27155 ft 442 kts 184°
2026-04-23 22:04 17.21584 -63.00147 27711 ft 445 kts 183°
2026-04-23 22:04 17.18473 -62.99790 28276 ft 456 kts 171°
2026-04-23 22:04 17.15444 -62.98667 28883 ft 468 kts 158°
2026-04-23 22:04 17.12622 -62.96891 29408 ft 476 kts 148°
2026-04-23 22:05 17.09956 -62.94799 29819 ft 483 kts 147°
2026-04-23 22:05 17.07304 -62.92690 30236 ft 487 kts 147°
2026-04-23 22:05 17.04603 -62.90539 30701 ft 489 kts 147°
2026-04-23 22:05 17.01881 -62.88382 31169 ft 491 kts 147°
2026-04-23 22:06 16.99144 -62.86227 31603 ft 494 kts 147°
2026-04-23 22:06 16.96389 -62.84071 31984 ft 497 kts 147°
2026-04-23 22:06 16.93607 -62.81903 32329 ft 500 kts 148°
2026-04-23 22:06 16.90805 -62.79725 32689 ft 503 kts 148°
2026-04-23 22:07 16.87981 -62.77532 33062 ft 504 kts 148°
2026-04-23 22:07 16.85163 -62.75344 33454 ft 505 kts 148°
2026-04-23 22:07 16.82336 -62.73150 33851 ft 506 kts 148°
2026-04-23 22:07 16.79561 -62.70995 34426 ft 499 kts 148°
2026-04-23 22:08 16.76796 -62.68845 35107 ft 492 kts 148°
2026-04-23 22:08 16.74060 -62.66720 35637 ft 489 kts 148°
2026-04-23 22:08 16.71327 -62.64601 35995 ft 490 kts 148°
2026-04-23 22:08 16.68567 -62.62467 35952 ft 496 kts 148°
2026-04-23 22:09 16.63054 -62.58198 35957 ft 489 kts 148°
2026-04-23 22:09 16.58515 -62.54683 35962 ft 488 kts 148°
2026-04-23 22:10 16.52179 -62.49784 35966 ft 488 kts 148°
2026-04-23 22:10 16.47611 -62.46253 35961 ft 487 kts 148°
2026-04-23 22:11 16.42168 -62.42049 35959 ft 486 kts 148°
2026-04-23 22:11 16.36779 -62.37888 35961 ft 485 kts 148°
2026-04-23 22:12 16.31356 -62.33706 35962 ft 484 kts 148°
2026-04-23 22:12 16.25938 -62.29530 35962 ft 484 kts 148°
2026-04-23 22:13 16.20517 -62.25355 35963 ft 484 kts 149°
2026-04-23 22:13 16.15097 -62.21183 35957 ft 485 kts 149°
2026-04-23 22:14 16.09664 -62.17004 35957 ft 485 kts 149°
2026-04-23 22:14 16.04272 -62.12860 35971 ft 486 kts 149°
2026-04-23 22:15 15.98834 -62.08683 35958 ft 486 kts 149°
2026-04-23 22:15 15.93392 -62.04505 35960 ft 486 kts 149°
2026-04-23 22:16 15.87945 -62.00327 35961 ft 486 kts 149°
2026-04-23 22:16 15.82501 -61.96154 35960 ft 486 kts 149°
2026-04-23 22:17 15.77097 -61.92013 35961 ft 485 kts 149°
2026-04-23 22:17 15.71654 -61.87848 35957 ft 486 kts 149°
2026-04-23 22:18 15.66205 -61.83681 35956 ft 486 kts 149°
2026-04-23 22:18 15.60760 -61.79518 35952 ft 486 kts 149°
2026-04-23 22:19 15.55306 -61.75351 35954 ft 486 kts 149°
2026-04-23 22:19 15.49853 -61.71188 35958 ft 486 kts 149°
2026-04-23 22:20 15.44437 -61.67056 35958 ft 486 kts 149°
2026-04-23 22:20 15.38984 -61.62899 35953 ft 486 kts 148°
2026-04-23 22:21 15.33540 -61.58750 35961 ft 486 kts 148°
2026-04-23 22:21 15.28090 -61.54601 35955 ft 486 kts 148°
2026-04-23 22:22 15.22634 -61.50450 35960 ft 486 kts 148°
2026-04-23 22:22 15.17221 -61.46334 35957 ft 486 kts 148°
2026-04-23 22:23 15.11776 -61.42196 35963 ft 486 kts 148°
2026-04-23 22:23 15.06326 -61.38057 35954 ft 486 kts 148°
2026-04-23 22:24 15.00877 -61.33922 35607 ft 489 kts 148°
2026-04-23 22:24 14.98103 -61.31822 34761 ft 496 kts 148°
2026-04-23 22:24 14.95323 -61.29714 34102 ft 494 kts 148°
2026-04-23 22:25 14.92569 -61.27623 33487 ft 489 kts 148°
2026-04-23 22:25 14.89833 -61.25546 32909 ft 485 kts 148°
2026-04-23 22:25 14.87163 -61.23522 32346 ft 480 kts 148°
2026-04-23 22:25 14.84478 -61.21487 31800 ft 476 kts 147°
2026-04-23 22:26 14.81809 -61.19468 31257 ft 473 kts 147°
2026-04-23 22:26 14.79164 -61.17466 30715 ft 469 kts 147°
2026-04-23 22:26 14.76530 -61.15473 30180 ft 467 kts 147°
2026-04-23 22:26 14.73916 -61.13497 29542 ft 464 kts 147°
2026-04-23 22:27 14.71321 -61.11535 28883 ft 459 kts 147°
2026-04-23 22:27 14.68758 -61.09595 28306 ft 453 kts 147°
2026-04-23 22:27 14.66220 -61.07678 27728 ft 449 kts 147°
2026-04-23 22:27 14.63742 -61.05807 27143 ft 446 kts 147°
2026-04-23 22:28 14.61199 -61.04042 26567 ft 437 kts 154°
2026-04-23 22:28 14.58417 -61.02834 26005 ft 429 kts 166°
2026-04-23 22:28 14.55528 -61.02162 25441 ft 423 kts 175°
2026-04-23 22:28 14.52618 -61.01995 24874 ft 416 kts 181°
2026-04-23 22:29 14.49725 -61.01944 24305 ft 415 kts 181°
2026-04-23 22:29 14.46836 -61.01892 23745 ft 414 kts 181°
2026-04-23 22:29 14.43960 -61.01831 23121 ft 413 kts 180°
2026-04-23 22:29 14.41096 -61.01760 22524 ft 410 kts 180°
2026-04-23 22:30 14.38254 -61.01682 21952 ft 407 kts 180°
2026-04-23 22:30 14.35434 -61.01601 21406 ft 404 kts 180°
2026-04-23 22:30 14.32639 -61.01519 20867 ft 401 kts 180°
2026-04-23 22:30 14.29859 -61.01437 20328 ft 398 kts 180°
2026-04-23 22:31 14.27097 -61.01355 19816 ft 395 kts 180°
2026-04-23 22:31 14.24387 -61.01275 19286 ft 393 kts 180°
2026-04-23 22:31 14.21659 -61.01195 18755 ft 391 kts 180°
2026-04-23 22:31 14.18939 -61.01115 18230 ft 390 kts 180°
2026-04-23 22:32 14.16238 -61.01036 17640 ft 387 kts 180°
2026-04-23 22:32 14.13550 -61.00957 17111 ft 384 kts 180°
2026-04-23 22:32 14.10881 -61.00878 16585 ft 381 kts 180°
2026-04-23 22:32 14.08238 -61.00801 16075 ft 378 kts 180°
2026-04-23 22:33 14.05616 -61.00723 15577 ft 376 kts 180°
2026-04-23 22:33 14.03008 -61.00647 15070 ft 373 kts 180°
2026-04-23 22:33 14.00466 -61.00545 14543 ft 366 kts 175°
2026-04-23 22:33 13.98039 -60.99768 14149 ft 369 kts 152°
2026-04-23 22:34 13.96067 -60.98103 13962 ft 366 kts 131°
2026-04-23 22:34 13.94731 -60.95896 13830 ft 362 kts 114°
2026-04-23 22:34 13.94122 -60.93404 13617 ft 359 kts 95°
2026-04-23 22:34 13.94304 -60.90856 13294 ft 358 kts 76°
2026-04-23 22:35 13.95288 -60.88496 12898 ft 360 kts 56°
2026-04-23 22:35 13.96949 -60.86645 12677 ft 355 kts 37°
2026-04-23 22:35 13.99077 -60.85378 12311 ft 352 kts 21°
2026-04-23 22:35 14.01436 -60.84791 11808 ft 347 kts 360°
2026-04-23 22:36 14.03779 -60.85277 11386 ft 344 kts 332°
2026-04-23 22:36 14.05590 -60.86807 11171 ft 335 kts 304°
2026-04-23 22:36 14.06483 -60.88974 10911 ft 325 kts 277°
2026-04-23 22:36 14.06346 -60.91251 10585 ft 317 kts 253°
2026-04-23 22:37 14.05370 -60.93223 10253 ft 313 kts 231°
2026-04-23 22:37 14.03718 -60.94621 9918 ft 304 kts 207°
2026-04-23 22:37 14.01744 -60.95244 9521 ft 292 kts 192°
2026-04-23 22:37 13.99768 -60.95532 9114 ft 281 kts 188°
2026-04-23 22:38 13.97852 -60.95749 8702 ft 275 kts 187°
2026-04-23 22:38 13.95964 -60.95954 8300 ft 272 kts 187°
2026-04-23 22:38 13.94072 -60.96083 7910 ft 273 kts 177°
2026-04-23 22:38 13.92268 -60.95492 7513 ft 276 kts 148°
2026-04-23 22:39 13.90932 -60.94095 7168 ft 275 kts 120°
2026-04-23 22:39 13.90388 -60.92266 6865 ft 265 kts 92°
2026-04-23 22:39 13.90720 -60.90434 6594 ft 260 kts 68°
2026-04-23 22:39 13.91489 -60.88754 6368 ft 261 kts 62°
2026-04-23 22:40 13.92387 -60.87112 6102 ft 264 kts 52°
2026-04-23 22:40 13.93758 -60.85915 5821 ft 261 kts 27°
2026-04-23 22:40 13.96920 -60.84184 5295 ft 255 kts 33°
2026-04-23 22:41 13.98405 -60.83234 5043 ft 252 kts 28°
2026-04-23 22:41 14.00043 -60.82772 4736 ft 246 kts 355°
2026-04-23 22:41 14.01578 -60.83422 4485 ft 240 kts 317°
2026-04-23 22:41 14.02638 -60.84673 4287 ft 228 kts 313°
2026-04-23 22:42 14.03756 -60.85815 4030 ft 224 kts 317°
2026-04-23 22:42 14.04818 -60.86961 3851 ft 225 kts 302°
2026-04-23 22:42 14.05141 -60.88515 3702 ft 225 kts 261°
2026-04-23 22:42 14.04709 -60.90028 3582 ft 219 kts 251°
2026-04-23 22:43 14.04246 -60.91533 3431 ft 221 kts 252°
2026-04-23 22:43 14.03801 -60.93049 3306 ft 219 kts 253°
2026-04-23 22:43 14.03370 -60.94550 3177 ft 218 kts 253°
2026-04-23 22:43 14.02954 -60.96032 3090 ft 218 kts 253°
2026-04-23 22:44 14.02538 -60.97534 3029 ft 219 kts 254°
2026-04-23 22:44 14.02126 -60.99043 3022 ft 220 kts 253°
2026-04-23 22:44 14.01713 -61.00565 3001 ft 220 kts 254°
2026-04-23 22:44 14.01306 -61.02079 3000 ft 218 kts 254°
2026-04-23 22:45 14.00902 -61.03582 2989 ft 217 kts 254°
2026-04-23 22:45 14.00497 -61.05092 3017 ft 220 kts 254°
2026-04-23 22:45 14.00090 -61.06611 2999 ft 219 kts 254°
2026-04-23 22:45 13.99685 -61.08120 2994 ft 217 kts 253°
2026-04-23 22:46 13.98939 -61.09422 2989 ft 214 kts 220°
2026-04-23 22:46 13.97750 -61.10336 3015 ft 220 kts 215°
2026-04-23 22:46 13.96518 -61.11277 2995 ft 219 kts 216°
2026-04-23 22:46 13.95308 -61.12207 2989 ft 215 kts 216°
2026-04-23 22:47 13.94114 -61.13125 2987 ft 213 kts 215°
2026-04-23 22:47 13.92931 -61.14034 2989 ft 211 kts 215°
2026-04-23 22:47 13.91754 -61.14938 2993 ft 211 kts 215°
2026-04-23 22:47 13.90572 -61.15846 2995 ft 212 kts 216°
2026-04-23 22:48 13.89385 -61.16759 3008 ft 213 kts 216°
2026-04-23 22:48 13.88205 -61.17667 2995 ft 215 kts 216°
2026-04-23 22:48 13.87009 -61.18586 2989 ft 212 kts 216°
2026-04-23 22:48 13.85842 -61.19483 2956 ft 208 kts 216°
2026-04-23 22:49 13.84684 -61.20373 2856 ft 207 kts 215°
2026-04-23 22:49 13.83513 -61.21211 2712 ft 203 kts 203°
2026-04-23 22:49 13.82141 -61.21413 2580 ft 199 kts 175°
2026-04-23 22:49 13.80740 -61.21375 2473 ft 203 kts 178°
2026-04-23 22:50 13.79345 -61.21376 2340 ft 198 kts 178°
2026-04-23 22:50 13.77985 -61.21378 2249 ft 197 kts 178°
2026-04-23 22:50 13.76605 -61.21378 2120 ft 196 kts 178°
2026-04-23 22:50 13.75262 -61.21374 2028 ft 193 kts 175°
2026-04-23 22:51 13.74019 -61.20954 1895 ft 189 kts 136°
2026-04-23 22:51 13.73392 -61.19817 1834 ft 185 kts 98°
2026-04-23 22:51 13.73310 -61.18493 1807 ft 187 kts 91°
2026-04-23 22:51 13.73307 -61.17174 1808 ft 183 kts 88°
2026-04-23 22:52 13.73312 -61.15862 1809 ft 183 kts 89°
2026-04-23 22:52 13.73315 -61.14550 1798 ft 184 kts 89°
2026-04-23 22:52 13.73321 -61.13232 1783 ft 181 kts 89°
2026-04-23 22:52 13.73327 -61.11986 1772 ft 168 kts 90°
2026-04-23 22:53 13.73329 -61.10755 1787 ft 175 kts 89°
2026-04-23 22:53 13.73332 -61.09518 1661 ft 170 kts 90°
2026-04-23 22:53 13.73333 -61.08328 1557 ft 165 kts 89°
2026-04-23 22:53 13.73334 -61.07143 1468 ft 165 kts 91°
2026-04-23 22:54 13.73335 -61.05987 1391 ft 158 kts 90°
2026-04-23 22:54 13.73336 -61.04888 1243 ft 151 kts 90°
2026-04-23 22:54 13.73337 -61.03851 1119 ft 140 kts 89°
2026-04-23 22:54 13.73338 -61.02846 1014 ft 141 kts 90°
2026-04-23 22:55 13.73336 -61.01864 972 ft 135 kts 90°
2026-04-23 22:55 13.73337 -61.00895 873 ft 133 kts 90°
2026-04-23 22:55 13.73337 -60.99936 787 ft 133 kts 89°
2026-04-23 22:55 13.73339 -60.99009 587 ft 128 kts 89°
2026-04-23 22:56 13.73336 -60.98138 424 ft 121 kts 90°
2026-04-23 22:56 13.73336 -60.97255 239 ft 126 kts 91°
2026-04-23 22:56 13.73337 -60.96353 52 ft 126 kts 90°
2026-04-23 22:56 13.73341 -60.95512 22 ft 98 kts 90°
2026-04-23 22:57 13.73338 -60.95131 20 ft 63 kts 91°
2026-04-23 22:57 13.73338 -60.94741 20 ft 49 kts 89°
2026-04-23 22:57 13.73388 -60.94557 20 ft 18 kts
2026-04-23 22:57 13.73525 -60.94644 24 ft 10 kts 319°
2026-04-23 22:58 13.73537 -60.94655 25 ft 3 kts 317°
2026-04-23 22:58 13.73550 -60.94673 22 ft 5 kts 301°
2026-04-23 22:58 13.73565 -60.94762 23 ft 19 kts 272°
2026-04-23 22:58 13.73525 -60.94884 23 ft 18 kts 248°
2026-04-23 22:59 13.73516 -60.95013 21 ft 18 kts 271°
2026-04-23 22:59 13.73521 -60.95124 21 ft 9 kts 282°
2026-04-23 22:59 13.73561 -60.95150 25 ft 6 kts
2026-04-23 22:59 13.73603 -60.95139 24 ft 6 kts 17°
2026-04-23 23:00 13.73604 -60.95138 21 ft 0 kts 17°